Location: Alfortville
(48.8058°N, 2.4204°E)
Time: 14:57:53
(UTC+00:00)

DOVE 4 - Visible Passes

Search period start: 20 March 2023 00:00
Search period end: 30 March 2023 00:00
Orbit: 586 x 791 km, 97.8° (Epoch: 20 March)

Date Brightness Start Highest point End Pass type
(mag) Time Alt. Az. Time Alt. Az. Time Alt. Az.
20 Mar ? 00:10:15 10° N 00:11:17 14° NNW 00:11:17 14° NNW visible
20 Mar ? 23:10:36 10° N 23:11:46 17° N 23:11:46 17° N visible
21 Mar ? 00:50:21 10° NNW 00:50:22 10° NNW 00:50:22 10° NNW visible
21 Mar ? 22:11:49 10° NNE 22:12:14 12° NNE 22:12:14 12° NNE visible
21 Mar ? 23:49:30 10° N 23:50:50 17° NNW 23:50:50 17° NNW visible
22 Mar ? 22:50:09 10° NNE 22:51:18 17° NNE 22:51:18 17° NNE visible
23 Mar ? 00:28:56 10° NNW 00:29:54 13° NNW 00:29:54 13° NNW visible
23 Mar ? 21:51:44 10° NE 21:51:44 10° NE 21:51:44 10° NE visible
23 Mar ? 23:28:51 10° N 23:30:21 19° N 23:30:21 19° N visible
24 Mar ? 22:29:46 10° NNE 22:30:47 16° NNE 22:30:47 16° NNE visible
25 Mar ? 00:07:57 10° N 00:09:23 16° NNW 00:09:23 16° NNW visible
25 Mar ? 23:08:16 10° N 23:09:48 20° N 23:09:48 20° N visible
26 Mar ? 00:48:04 10° NNW 00:48:25 11° NW 00:48:25 11° NW visible
26 Mar ? 22:09:29 10° NNE 22:10:14 14° NNE 22:10:14 14° NNE visible
26 Mar ? 23:47:08 10° N 23:48:50 19° NNW 23:48:50 19° NNW visible
27 Mar ? 22:47:45 10° NNE 22:49:14 20° NNE 22:49:14 20° NNE visible
28 Mar ? 00:26:32 10° NNW 00:27:50 14° NNW 00:27:50 14° NNW visible
28 Mar ? 21:49:21 10° NE 21:49:38 11° NE 21:49:38 11° NE visible
28 Mar ? 23:26:24 10° N 23:28:14 22° N 23:28:14 22° N visible
29 Mar ? 22:27:18 10° NNE 22:28:37 18° NNE 22:28:37 18° NNE visible
